Find Optus D2

NORAD ID: 32252 Int'l Des: 2007-044 Owner: OPTS Country: AU operational
HEOCIRCULAR

Aktuelle Ansicht

3D-Globus wird geladen...

Über Optus D2

Beschreibung wird geladen...

Nächste Überflüge

Passes for default location (London). Set your location on the main map for personalized predictions.

Höhenverlauf

Loading altitude history...

Zweizeiliger Elementsatz

1 32252U 07044A 26151.12329083 .00000053 00000-0 00000+0 0 9999
2 32252 2.0373 82.2289 0002864 337.2921 124.8811 0.99340565 68379
Epoch: 31. Mai 2026 • Age: 12 hours

Aktueller Status

Höhe 36042.9 km
Geschwindigkeit 3.07 km/s
Subsatellitenpunkt -1.99°S, 110.3°W
Startdatum 5. Okt. 2007
Alter 18.6 years
Typ other

Technische Details

Klassifizierung Payload
Masse 2350.00 kg
Trockenmasse 1079.00 kg
Gesamtmasse 2350.00 kg
Länge 4.20 m
Durchmesser 2.30 m
Spannweite 22.40 m
Form Box + 2 Pan
Hersteller OSCD
Bus-Typ OSC Star 2.4
Phasenstatus In Orbit
Besitzer/Staat OPTS/AU

Most Searched